EW5411 Weather Reports


Display with metric or nautical units.
time (UTC)temp
F
wind
direction
speed
MPH
gust
MPH
rain 1hr
in
rain 24hr
in
rain mn
in
humidity
%
barometer
mb
20260510004526 61 355 2.0 4.0 0.00 0.00 0.00 76 1008.0
20260510003027 62 17 0.0 4.0 0.00 0.00 0.00 74 1007.8
20260510001524 63 5 1.0 3.0 0.00 0.00 0.00 72 1007.6
20260510000024 65 318 0.0 0.0 0.00 0.00 0.00 67 1007.5
20260509234529 66 318 0.0 0.0 0.00 0.00 0.00 64 1007.5
20260509233022 66 318 0.0 0.0 0.00 0.00 0.00 61 1007.4
20260509231522 67 318 0.0 0.0 0.00 0.00 0.00 60 1007.3
20260509230021 68 318 0.0 0.0 0.00 0.00 0.00 60 1007.1
20260509224520 69 318 0.0 2.0 0.00 0.00 0.00 57 1007.3
20260509223025 69 292 0.0 3.0 0.00 0.00 0.00 59 1007.2
20260509221521 70 294 0.0 2.0 0.00 0.00 0.00 57 1007.2
20260509220021 72 283 1.0 5.0 0.00 0.00 0.00 52 1007.2
20260509214518 72 270 2.0 5.0 0.00 0.00 0.00 50 1007.3
20260509213019 72 294 4.0 10.0 0.00 0.00 0.00 48 1007.2
20260509211517 73 274 2.0 7.0 0.00 0.00 0.00 48 1007.1
20260509210118 73 145 0.0 8.0 0.00 0.00 0.00 50 1006.9
20260509204515 73 223 1.0 7.0 0.00 0.00 0.00 49 1006.9
20260509203013 73 201 2.0 9.0 0.00 0.00 0.00 47 1006.8
20260509201512 73 171 4.0 12.0 0.00 0.00 0.00 50 1006.8
20260509200010 71 171 1.0 7.0 0.00 0.00 0.00 52 1006.8
20260509194506 71 217 2.0 7.0 0.00 0.00 0.00 54 1007.2
20260509193011 71 232 4.0 10.0 0.00 0.00 0.00 53 1007.5
20260509191502 71 107 2.0 7.0 0.00 0.00 0.00 55 1007.6
20260509190109 71 250 3.0 10.0 0.00 0.00 0.00 56 1007.8
20260509184557 71 188 2.0 10.0 0.00 0.00 0.00 57 1008.0
20260509183053 70 265 2.0 12.0 0.00 0.00 0.00 59 1008.2
20260509181553 69 181 2.0 9.0 0.00 0.00 0.00 64 1008.4
20260509180053 69 207 2.0 6.0 0.00 0.00 0.00 60 1008.8
20260509174545 69 190 1.0 5.0 0.00 0.00 0.00 58 1009.0
20260509173042 68 220 2.0 7.0 0.00 0.00 0.00 61 1009.1
20260509171545 68 183 2.0 7.0 0.00 0.00 0.00 59 1009.2
20260509170040 68 223 5.0 9.0 0.00 0.00 0.00 55 1009.2
20260509164547 67 204 3.0 8.0 0.00 0.00 0.00 59 1009.3
20260509163038 66 263 2.0 9.0 0.00 0.00 0.00 58 1009.3
20260509161535 66 215 4.0 10.0 0.00 0.00 0.00 59 1009.4
20260509160033 65 213 3.0 11.0 0.00 0.00 0.00 60 1009.5
20260509154530 65 291 4.0 11.0 0.00 0.00 0.00 61 1009.8
20260509153028 64 219 3.0 10.0 0.00 0.00 0.00 61 1009.6
20260509151527 64 253 5.0 12.0 0.00 0.00 0.00 60 1009.5
20260509150034 65 138 5.0 12.0 0.00 0.00 0.00 61 1009.6
20260509144531 64 146 6.0 8.0 0.00 0.00 0.00 60 1009.4
20260509143022 63 146 3.0 8.0 0.00 0.00 0.00 61 1009.4
20260509141521 62 141 2.0 4.0 0.00 0.00 0.00 63 1009.8
20260509140013 61 175 3.0 7.0 0.00 0.00 0.00 63 1010.1
20260509134512 60 123 1.0 4.0 0.00 0.00 0.00 68 1010.3
20260509133006 58 226 1.0 6.0 0.00 0.00 0.00 67 1010.4
20260509131507 58 145 3.0 6.0 0.00 0.00 0.00 70 1010.4
20260509130059 57 135 0.0 1.0 0.00 0.00 0.00 72 1010.3
20260509124556 56 57 0.0 2.0 0.00 0.00 0.00 70 1010.3
20260509123055 55 106 0.0 3.0 0.00 0.00 0.00 75 1010.4
20260509121555 54 147 1.0 3.0 0.00 0.00 0.00 71 1010.4
20260509120055 54 244 0.0 0.0 0.00 0.00 0.00 73 1010.5
20260509114555 53 85 0.0 0.0 0.00 0.00 0.00 76 1010.4
20260509113057 52 194 0.0 0.0 0.00 0.00 0.00 80 1010.3
20260509111552 52 160 0.0 0.0 0.00 0.00 0.00 76 1010.2
20260509110051 52 302 0.0 0.0 0.00 0.00 0.00 77 1010.2
20260509104550 52 16 0.0 0.0 0.00 0.00 0.00 76 1010.2
20260509103052 52 91 0.0 0.0 0.00 0.00 0.00 76 1010.2
20260509101552 52 351 0.0 0.0 0.00 0.00 0.00 73 1010.3
20260509100045 53 283 1.0 2.0 0.00 0.00 0.00 72 1010.3
20260509094545 54 265 0.0 3.0 0.00 0.00 0.00 66 1010.3
20260509093043 54 255 1.0 3.0 0.00 0.00 0.00 65 1010.5
20260509091542 53 272 0.0 3.0 0.00 0.00 0.00 74 1010.6
20260509090041 55 269 0.0 3.0 0.00 0.00 0.00 68 1010.5
20260509084543 55 286 0.0 2.0 0.00 0.00 0.00 62 1010.6
20260509083045 55 282 0.0 2.0 0.00 0.00 0.00 65 1010.7
20260509081543 55 290 0.0 2.0 0.00 0.00 0.00 64 1010.7
20260509080040 55 290 0.0 2.0 0.00 0.00 0.00 61 1010.7
20260509074539 55 284 0.0 0.0 0.00 0.00 0.00 58 1010.9
20260509073035 54 304 0.0 0.0 0.00 0.00 0.00 61 1011.0
20260509071535 53 290 0.0 1.0 0.00 0.00 0.00 64 1011.1
20260509070035 52 298 0.0 0.0 0.00 0.00 0.00 70 1011.1
20260509064535 54 296 0.0 0.0 0.00 0.00 0.00 68 1011.1
20260509063028 54 296 0.0 2.0 0.00 0.00 0.00 63 1011.3
20260509061529 53 296 0.0 1.0 0.00 0.00 0.00 66 1011.4
20260509060027 53 296 0.0 2.0 0.00 0.00 0.00 64 1011.6
20260509054525 53 290 0.0 2.0 0.00 0.00 0.00 65 1011.5
20260509053021 54 146 0.0 2.0 0.00 0.00 0.00 61 1011.7
20260509051521 55 355 0.0 0.0 0.00 0.00 0.00 55 1011.7
20260509050020 55 348 0.0 2.0 0.00 0.00 0.00 55 1011.5
20260509044519 55 347 0.0 1.0 0.00 0.00 0.00 59 1011.5
20260509043018 55 285 0.0 2.0 0.00 0.00 0.00 59 1011.5
20260509041516 56 252 0.0 2.0 0.00 0.00 0.00 59 1011.6
20260509040013 56 287 0.0 1.0 0.00 0.00 0.00 63 1011.7
20260509034534 56 229 0.0 2.0 0.00 0.00 0.00 57 1011.8
20260509033012 57 290 0.0 2.0 0.00 0.00 0.00 58 1011.9
20260509031511 57 284 0.0 2.0 0.00 0.00 0.00 58 1012.0
20260509030011 57 285 1.0 2.0 0.00 0.00 0.00 58 1012.0
20260509024510 58 257 1.0 2.0 0.00 0.00 0.00 55 1012.1
20260509023009 58 265 1.0 4.0 0.00 0.00 0.00 57 1012.1
20260509021508 58 258 0.0 2.0 0.00 0.00 0.00 55 1012.1
20260509020008 58 263 0.0 3.0 0.00 0.00 0.00 56 1012.0
20260509014507 58 285 0.0 2.0 0.00 0.00 0.00 56 1011.8
20260509013009 58 277 0.0 2.0 0.00 0.00 0.00 58 1011.8
20260509011507 58 248 0.0 3.0 0.00 0.00 0.00 57 1011.8